Estación de Polizones INIA

Ultimos registro cada 15 minutos 31
Estación Fecha / Hora Temperatura Humedad Lluvia Velocidad Dirección Radiación Presion
31 Polizones INIA 06-05-2026 07:30 7,2 96,7 0,1 1,4 187 0 993
30 Polizones INIA 06-05-2026 07:15 7,2 97,2 0 1,1 175 0 993
29 Polizones INIA 06-05-2026 07:00 7,2 97,3 0 1,2 181 0 993
28 Polizones INIA 06-05-2026 06:45 7,4 97,3 0 1,8 183 0 993
27 Polizones INIA 06-05-2026 06:30 7,4 97,2 0 1,3 172 0 993
26 Polizones INIA 06-05-2026 06:15 7,5 97,3 0 1,9 169 0 992
25 Polizones INIA 06-05-2026 06:00 7,6 97,3 0 0,8 173 0 992
24 Polizones INIA 06-05-2026 05:45 7,7 97 0 0,8 176 0 992
23 Polizones INIA 06-05-2026 05:30 7,6 96,8 0,1 1,1 182 0 992
22 Polizones INIA 06-05-2026 05:15 7,6 97,3 0 1,1 186 0 992
21 Polizones INIA 06-05-2026 05:00 7,7 97,6 0 0,8 171 0 992
20 Polizones INIA 06-05-2026 04:45 7,7 97,7 0,1 0,8 185 0 992
19 Polizones INIA 06-05-2026 04:30 7,8 97,7 0,4 0,7 187 0 992
18 Polizones INIA 06-05-2026 04:15 7,9 97,9 0,5 1,2 176 0 992
17 Polizones INIA 06-05-2026 04:00 8 97,8 0,4 0,5 145 0 992
16 Polizones INIA 06-05-2026 03:45 8,1 97,7 0,5 0,2 171 0 992
15 Polizones INIA 06-05-2026 03:30 8,2 97,8 0,2 0,5 178 0 992
14 Polizones INIA 06-05-2026 03:15 8,3 97,8 0,1 0,5 169 0 992
13 Polizones INIA 06-05-2026 03:00 8,4 98 0,3 0,4 170 0 992
12 Polizones INIA 06-05-2026 02:45 8,4 97,9 0,1 0,4 171 0 992
11 Polizones INIA 06-05-2026 02:30 8,4 98,1 0,3 0,3 181 0 992
10 Polizones INIA 06-05-2026 02:15 8,4 98,1 0,8 0,3 156 0 992
9 Polizones INIA 06-05-2026 02:00 8,4 98,2 0,9 0,2 176 0 992
8 Polizones INIA 06-05-2026 01:45 8,3 98,1 0,4 0,2 160 0 992
7 Polizones INIA 06-05-2026 01:30 8,2 98,1 0,6 0,5 169 0 992
6 Polizones INIA 06-05-2026 01:15 8,2 98,2 0,2 0,5 190 0 992
5 Polizones INIA 06-05-2026 01:00 8,2 98,2 0,9 0,1 190 0 992
4 Polizones INIA 06-05-2026 00:45 8,2 98,3 1 0,3 159 0 992
3 Polizones INIA 06-05-2026 00:30 8,2 98,3 1,4 0,3 152 0 992
2 Polizones INIA 06-05-2026 00:15 8,3 98,2 0,9 0,3 173 0 992
1 Polizones INIA 06-05-2026 00:00 8,3 98,2 0,4 0,4 148 0 992